Location: Beverley
(50.2667°N, 107.9667°W)
Time: 23:14:16
(UTC+00:00)

Envisat - Pass Details

Date: 23 January 2022
Orbit: 764 x 765 km, 98.2° (Epoch: 22 May)

Event Time Altitude Azimuth Distance (km) Brightness Sun altitude
Rises 12:47:51 0° 10° (N) 3,243 6.3 -20.4°
Reaches altitude 10° 12:50:12 10° 6° (N) 2,313 5.5 -20.1°
Maximum altitude 12:55:09 53° 291° (WNW) 935 3.0 -19.3°
Drops below altitude 10° 13:00:04 10° 215° (SW) 2,298 5.2 -18.5°
Sets 13:02:24 0° 211° (SSW) 3,220 6.0 -18.1°
